GFSNE_850_thetae_000.txt.gz
Theta_e
287 288 289 290 290 291 291 291 290 290 292 292 293 292 292 292 294 295 296 297 299 301 301 301 301 302 302 301 299 298 299 303 308 309 306 302 303 305
288 288 288 288 288 287 287 288 290 291 290 290 291 291 292 292 292 292 293 294 296 299 299 299 298 296 297 298 298 297 298 300 301 303 304 304 303 302
288 288 288 288 287 287 286 285 287 289 291 290 289 290 291 291 291 292 292 292 295 296 298 299 298 297 297 295 295 296 298 298 300 302 303 303 302 301
288 287 287 286 285 286 285 285 284 287 289 289 289 289 290 290 291 291 291 291 292 294 296 298 296 295 294 294 294 293 293 296 297 297 299 300 299 299
288 287 286 285 285 284 284 284 284 284 288 288 288 288 289 289 289 289 289 290 291 291 292 294 296 295 294 294 293 293 293 293 293 294 296 295 295 295
286 286 284 283 281 282 283 284 285 284 285 286 287 287 287 288 288 288 289 288 290 291 291 292 292 294 295 293 293 293 292 292 292 292 292 292 293 294
284 283 283 281 281 282 283 284 285 286 286 286 286 285 286 286 286 285 285 286 287 289 290 291 291 292 292 292 292 292 292 292 291 291 291 291 291 291
283 283 281 280 280 280 281 282 282 283 283 284 285 285 285 284 284 284 284 284 285 286 288 289 289 290 290 291 292 292 292 292 292 291 291 291 291 291
282 281 280 279 279 280 280 281 281 281 282 282 283 283 283 283 283 283 283 283 283 284 285 287 288 289 288 288 289 290 291 291 292 292 292 292 292 292
281 280 279 279 279 279 280 281 281 281 281 281 281 281 281 282 282 282 282 282 283 284 284 284 286 286 287 287 287 287 288 289 291 291 291 291 291 291
279 279 278 278 279 280 280 280 280 280 281 281 281 282 282 282 282 282 283 283 283 283 283 283 284 285 285 285 285 286 286 287 287 288 289 289 288 289
278 278 278 278 279 279 280 279 279 279 280 280 280 280 281 282 282 282 283 283 283 283 283 284 284 284 285 285 285 286 286 286 286 286 286 286 286 287
278 278 278 278 278 278 279 279 279 279 279 279 279 280 280 281 281 281 281 281 282 282 282 283 284 284 285 285 285 285 286 286 286 287 287 286 286 287
277 277 277 277 278 278 278 279 279 279 279 280 280 280 280 281 281 282 282 283 283 283 283 283 283 284 285 285 285 285 285 285 285 286 286 287 287 288
277 277 277 277 277 277 277 278 278 279 279 279 280 280 280 281 281 282 283 283 284 284 284 284 284 285 285 285 285 285 285 285 285 285 286 286 286 287
277 277 276 276 276 277 277 277 277 278 278 279 279 280 281 281 282 283 283 284 284 285 285 285 285 285 285 285 285 286 285 285 285 285 286 286 285 285
277 276 276 276 276 276 276 277 277 277 278 279 279 280 281 282 283 283 284 285 285 286 286 286 286 286 286 285 285 285 285 285 285 285 285 285 285 285
275 276 275 275 275 275 276 276 276 277 278 279 279 280 281 282 282 283 284 284 285 285 286 286 286 287 286 286 286 286 286 286 285 285 285 285 285 285
275 275 275 275 275 275 275 275 276 276 277 278 279 280 281 281 281 282 283 283 284 285 285 285 286 286 286 286 286 286 286 286 286 285 285 285 285 285
275 275 275 275 274 274 274 275 275 276 277 278 279 279 280 280 280 281 281 282 283 283 284 284 285 286 286 286 286 286 286 286 286 286 286 285 285 285
276 275 275 274 274 274 274 274 274 274 276 277 278 279 279 280 280 280 280 280 281 281 282 283 283 283 284 284 284 285 285 285 285 285 285 285 285 285
277 276 275 275 274 274 274 274 274 274 274 276 277 278 278 279 279 279 279 279 279 280 280 281 282 283 282 282 283 284 284 284 283 283 283 283 283 284
277 277 277 275 274 274 274 274 274 274 273 274 276 276 277 278 278 278 278 278 278 279 280 282 282 282 282 283 282 283 283 282 282 282 282 282 282 282

GFSNE_850_thetae_003.txt.gz
Theta_e
288 287 287 287 287 287 287 287 286 288 287 287 290 290 292 291 292 292 293 295 297 299 300 301 301 301 301 300 301 301 299 299 300 305 306 308 307 304
287 287 287 287 287 287 286 286 285 285 286 287 288 289 290 290 290 292 292 292 293 294 298 300 299 300 300 300 300 299 301 299 299 302 306 308 306 304
288 288 287 287 287 286 286 285 285 285 284 284 286 288 290 289 290 290 291 292 292 292 296 298 299 298 297 296 295 296 298 300 298 299 300 303 304 303
287 287 287 286 286 285 284 283 282 283 284 284 285 288 288 288 289 290 289 290 291 291 291 294 297 297 296 295 295 294 293 296 296 297 297 300 301 302
287 286 285 284 283 282 281 281 282 283 284 284 284 287 287 287 288 288 288 289 289 291 291 291 293 296 296 295 294 294 293 293 293 293 295 295 296 296
286 284 283 283 282 281 280 281 283 283 284 285 285 286 286 287 287 287 287 288 288 289 291 291 291 292 294 294 294 293 293 293 292 292 292 292 293 294
284 283 282 282 281 280 280 280 281 282 282 283 285 285 285 285 286 286 285 286 287 286 289 290 290 291 292 294 293 292 292 292 292 292 292 292 292 292
283 282 281 280 280 279 279 280 280 281 281 282 282 283 284 284 285 284 284 284 284 285 286 287 289 289 290 290 291 292 292 292 291 291 291 291 291 291
281 280 280 279 278 278 279 279 279 280 280 281 282 282 282 283 283 283 283 283 283 283 284 285 287 289 289 288 288 290 290 291 291 291 291 291 291 291
279 278 278 278 278 278 279 280 280 280 280 280 281 281 281 281 281 282 282 282 282 282 283 283 284 285 285 289 289 287 287 288 290 290 291 291 291 291
279 278 278 277 278 279 279 279 280 280 279 279 279 280 282 282 282 282 282 282 282 282 283 283 283 284 284 284 285 287 287 287 287 288 288 288 289 289
278 278 278 277 278 278 278 278 279 279 279 279 279 279 280 280 281 282 282 282 283 283 283 283 283 284 284 285 285 285 285 286 286 286 286 286 287 287
277 278 277 277 277 278 278 278 279 279 279 279 279 279 280 280 280 280 281 281 281 282 282 283 283 283 284 285 285 285 285 285 286 286 286 286 286 286
277 277 277 276 276 277 277 277 278 278 279 279 279 280 280 280 281 281 281 281 281 282 282 282 281 282 283 284 285 285 285 286 286 285 286 286 286 286
277 277 276 276 275 276 277 277 277 277 278 278 279 279 280 280 281 281 282 282 283 283 284 283 283 283 284 284 284 285 285 285 285 285 285 287 287 286
276 277 276 275 275 275 276 277 277 277 278 278 279 279 280 281 282 282 283 283 283 284 285 285 285 285 285 285 285 285 285 285 285 285 285 285 286 285
275 275 276 276 275 276 276 276 276 277 278 278 279 280 281 282 282 283 283 284 284 285 285 285 285 286 285 285 284 285 285 285 285 285 285 285 285 285
276 276 276 275 275 275 275 276 276 276 277 278 279 280 281 281 282 282 283 284 284 285 285 286 286 286 286 286 285 286 285 286 285 285 285 285 285 285
276 275 275 275 274 274 274 274 275 275 277 278 279 280 280 280 281 281 282 283 283 284 284 284 285 286 285 285 286 286 286 286 284 285 285 285 285 285
277 276 275 275 275 274 274 273 273 274 276 277 278 279 279 280 280 280 280 281 282 282 283 283 284 285 285 285 285 285 286 286 286 286 286 285 285 285
277 277 276 275 275 274 274 274 273 273 274 276 277 278 278 279 279 279 279 279 280 280 281 282 282 283 283 284 284 284 285 285 285 285 285 285 285 285
277 277 276 276 275 275 275 274 274 274 274 275 276 277 277 278 278 278 278 278 278 279 279 280 281 282 282 282 282 283 284 284 283 283 283 283 283 283
278 277 277 276 275 275 275 276 275 274 274 274 274 275 275 276 277 277 277 277 277 278 279 280 281 281 282 282 282 282 283 282 282 282 282 282 282 282

GFSNE_850_thetae_006.txt.gz
Theta_e
288 288 287 287 287 287 287 287 286 285 285 285 285 285 286 290 291 290 292 292 293 296 297 298 300 301 302 302 300 300 299 299 300 302 307 309 308 306
287 287 287 287 287 287 286 286 286 285 283 285 285 284 285 287 289 291 290 293 293 292 294 294 298 299 300 301 301 302 301 300 300 299 305 305 305 307
287 287 287 287 286 286 285 283 283 282 281 282 282 284 284 287 289 290 289 289 292 292 292 292 294 297 299 299 300 300 300 301 301 299 300 305 306 306
287 287 287 286 285 283 282 282 281 281 281 283 283 283 284 287 288 288 288 289 288 290 292 291 291 292 297 298 298 295 294 295 298 298 298 300 301 302
287 287 286 284 283 282 282 281 281 280 282 282 283 284 284 286 287 287 287 287 289 288 290 292 291 291 291 296 295 295 294 293 294 297 296 296 298 300
287 285 284 283 282 282 281 280 280 280 280 281 282 283 285 284 286 286 286 286 286 287 287 290 290 290 292 296 295 294 294 293 293 293 294 295 295 296
285 283 282 281 280 280 280 279 279 279 280 281 281 282 283 284 285 285 286 285 285 285 286 287 289 290 291 293 294 294 293 292 292 292 292 292 292 293
282 281 280 280 279 278 278 278 279 279 279 280 280 281 281 282 283 284 284 284 285 285 284 285 286 288 289 291 292 292 292 292 292 292 292 291 291 291
281 280 279 279 278 278 278 279 279 280 280 281 281 281 281 282 282 282 283 283 283 283 283 284 284 286 288 288 290 290 291 291 291 291 291 291 291 291
280 279 279 279 278 278 279 279 279 279 279 279 279 280 281 281 281 281 282 282 282 282 282 283 283 284 285 287 289 288 289 289 291 291 291 291 291 291
279 279 278 278 278 278 278 278 278 279 279 279 279 279 279 280 281 282 281 281 281 281 282 282 282 283 283 285 285 287 289 288 288 288 288 289 290 290
279 279 278 278 277 277 278 278 278 278 278 279 279 279 279 279 280 281 281 282 282 282 282 282 282 283 283 284 284 284 285 286 288 288 287 287 287 287
278 278 278 277 277 277 277 277 278 277 278 278 279 279 279 279 280 280 280 281 281 281 282 283 283 283 284 284 285 285 285 285 285 285 286 286 286 286
276 278 277 276 276 276 276 276 277 277 277 278 278 279 279 280 280 280 280 280 280 281 281 281 281 282 282 282 283 285 285 285 285 286 286 286 286 286
276 276 276 276 276 276 276 276 277 277 277 278 278 279 280 280 281 281 281 281 281 282 282 282 282 282 282 282 283 284 285 285 285 285 286 285 285 286
276 276 276 276 275 275 275 276 276 277 277 278 279 280 280 281 281 282 282 282 283 283 283 284 284 284 283 283 283 284 285 285 285 285 285 285 286 287
277 276 276 276 276 276 275 275 275 276 277 278 279 280 281 281 282 283 283 283 284 284 284 285 285 285 285 284 284 284 284 284 285 285 285 285 285 286
278 277 276 276 275 275 275 275 274 275 277 278 279 279 280 281 281 282 283 283 284 284 285 285 285 285 285 285 285 285 284 285 285 285 285 284 285 285
278 278 277 276 276 275 275 274 274 274 276 277 278 279 279 280 280 280 281 282 283 283 283 284 284 284 285 285 284 285 285 285 285 284 285 285 285 285
278 278 278 277 275 275 275 274 274 274 274 276 277 278 278 279 279 279 280 280 281 281 282 282 283 284 284 285 284 285 285 285 285 285 285 285 284 284
278 277 277 277 276 276 275 275 274 274 274 274 276 277 277 278 278 278 278 278 279 279 280 281 282 282 283 283 284 284 284 284 284 285 284 284 284 284
279 278 277 277 276 275 275 275 276 275 274 274 274 275 275 276 277 277 278 278 278 277 278 280 281 282 282 282 282 282 283 283 284 283 283 283 283 283
279 279 278 277 276 276 276 275 274 275 274 274 274 274 274 274 275 276 277 277 277 277 278 279 280 281 281 282 282 282 282 282 282 282 282 282 282 282

GFSNE_850_thetae_009.txt.gz
Theta_e
288 288 287 287 287 287 287 287 287 287 286 286 285 285 285 286 286 287 290 290 292 293 293 293 296 299 299 300 301 300 299 301 302 302 304 307 309 308
288 287 287 287 287 287 286 286 285 284 284 284 284 284 284 284 286 286 289 290 291 294 293 294 294 295 298 298 301 302 300 299 299 300 302 307 309 308
287 287 287 287 286 286 285 284 283 283 283 283 283 283 284 285 285 286 289 290 290 289 292 292 292 292 294 298 299 299 301 301 301 299 301 307 307 306
287 287 287 286 285 285 284 283 282 282 282 282 283 284 284 285 285 287 288 289 289 288 288 290 292 291 291 292 295 298 299 299 300 301 299 303 306 306
287 287 286 285 284 284 283 282 282 282 281 282 282 282 283 284 285 286 287 288 288 287 289 288 289 291 290 291 295 296 298 295 297 297 299 300 301 302
287 286 285 283 282 282 282 281 281 280 280 281 281 282 283 283 284 285 286 287 287 286 286 287 288 288 290 290 295 295 295 293 294 296 296 297 299 301
286 284 282 281 281 280 280 280 280 280 280 281 281 281 282 282 284 283 285 286 286 286 285 286 286 287 289 291 294 296 295 293 293 293 294 295 296 294
283 282 281 281 279 279 279 279 279 279 280 281 282 281 281 282 283 283 283 285 285 285 285 286 285 287 288 290 292 294 294 293 292 292 292 292 292 292
282 281 281 279 279 278 278 279 279 279 279 279 280 281 281 281 282 282 282 283 284 285 284 285 285 285 287 288 289 292 292 293 292 292 292 291 291 291
281 280 279 278 278 277 278 279 279 279 279 279 280 280 280 281 281 281 282 282 283 283 283 284 284 285 285 285 288 288 291 292 292 292 291 291 291 291
280 279 278 278 277 277 278 278 278 279 279 278 279 279 279 279 279 280 281 282 282 283 283 283 284 284 284 283 285 289 288 290 291 291 291 291 291 291
279 278 279 278 277 277 277 277 277 278 278 278 278 279 279 279 279 279 280 281 283 283 283 283 284 284 284 284 283 285 287 288 289 289 288 289 290 290
277 277 278 277 276 276 276 276 277 277 277 277 278 279 279 279 280 280 280 280 281 282 282 282 284 284 284 285 285 284 284 285 286 287 288 289 289 287
277 276 277 277 276 276 276 276 277 277 277 277 277 278 279 279 280 280 280 280 280 281 282 282 282 283 284 284 285 285 285 284 284 285 285 285 286 286
278 276 277 277 276 276 275 275 276 276 277 277 278 279 280 280 281 281 281 281 281 281 281 281 281 282 282 283 284 285 285 286 285 285 285 285 286 286
278 277 277 276 276 276 275 275 275 276 277 278 279 280 280 281 282 282 282 282 282 282 283 283 283 282 282 282 283 283 284 285 285 285 285 286 286 285
278 278 277 277 277 276 275 275 274 275 277 278 279 279 280 281 281 282 283 283 283 284 284 284 284 284 284 283 283 283 284 284 284 285 285 285 285 285
279 278 278 277 276 276 276 275 274 274 276 278 278 279 279 280 280 281 282 283 283 283 284 284 284 285 284 284 284 284 284 284 284 285 285 285 285 285
279 278 278 278 277 276 276 275 275 274 274 276 277 278 278 279 279 279 280 280 281 282 283 283 284 284 286 287 285 285 285 284 284 284 284 284 285 285
279 279 278 277 277 276 276 276 276 275 274 274 276 277 277 278 278 278 279 279 279 280 281 281 282 283 284 285 285 284 285 284 284 284 284 284 284 284
280 280 279 278 277 276 275 275 275 276 275 274 274 275 275 276 277 278 278 278 278 278 279 280 281 282 283 283 284 284 284 284 284 284 284 283 284 283
280 280 279 279 278 277 277 276 275 274 274 275 274 274 274 274 275 276 277 277 277 277 278 279 280 281 282 282 283 282 283 283 284 283 283 283 283 284
281 280 280 279 279 278 277 277 276 275 275 274 274 274 274 274 274 274 275 275 276 276 277 279 280 281 281 282 282 282 282 282 283 282 282 282 282 282

GFSNE_850_thetae_012.txt.gz
Theta_e
291 290 290 290 289 289 289 289 289 288 288 288 287 287 287 286 286 286 287 288 288 291 290 293 293 294 296 298 301 302 303 306 307 307 306 307 306 306
290 290 290 289 289 288 288 288 288 287 287 286 286 286 286 286 287 287 287 287 287 289 290 292 293 294 295 296 299 300 301 299 300 304 304 305 305 307
290 290 290 289 288 288 288 287 287 286 286 285 285 286 286 286 286 286 287 288 289 290 290 291 293 292 292 293 296 298 300 300 299 299 301 304 306 308
290 289 289 288 288 287 287 287 286 285 285 284 285 284 284 284 285 286 287 287 289 290 289 290 289 291 292 291 291 296 298 299 300 301 300 302 305 307
289 289 288 287 287 286 286 285 285 284 284 284 284 283 283 284 285 285 286 287 289 289 288 288 289 289 290 291 290 291 297 296 298 300 300 301 303 306
289 288 287 286 285 284 283 283 283 283 283 282 282 283 283 283 284 285 286 287 288 289 288 287 287 288 289 289 290 293 295 295 297 298 298 300 300 303
287 285 284 283 282 281 281 281 281 281 281 282 282 283 283 283 284 284 285 285 287 288 288 287 288 290 290 290 290 293 295 296 296 296 297 300 301 301
284 283 283 282 281 280 280 279 279 280 281 282 282 283 283 283 283 284 284 285 285 287 287 287 288 288 289 289 289 291 293 295 294 295 296 295 293 293
283 282 282 281 281 281 280 280 281 281 280 280 281 281 282 283 282 282 283 284 285 285 285 286 287 287 288 288 288 289 292 293 292 293 293 293 294 294
282 282 281 281 281 279 279 280 280 281 280 280 280 281 281 281 282 282 282 282 283 284 284 285 286 287 287 287 287 288 291 293 292 292 292 292 292 292
282 281 280 280 279 278 278 279 280 280 280 280 279 279 279 279 279 280 281 282 283 284 284 285 285 286 286 287 287 288 289 291 292 292 292 291 291 291
282 280 279 279 278 277 277 278 279 279 279 279 279 280 280 281 280 280 281 282 283 284 284 284 285 285 286 286 287 287 288 289 291 291 290 292 291 291
281 281 279 278 278 277 276 277 277 276 277 278 279 280 281 281 281 282 282 282 282 283 284 284 284 285 285 287 287 287 287 288 288 290 291 291 290 291
280 280 278 277 277 277 277 276 276 276 278 278 279 280 281 281 281 281 282 282 282 282 283 283 284 285 285 286 287 287 287 288 288 289 290 289 289 289
280 279 279 278 278 277 276 277 276 277 277 278 279 279 279 280 281 282 282 282 282 282 282 282 283 283 284 284 285 286 286 287 287 288 288 289 288 288
280 279 279 279 279 278 278 277 276 276 276 277 277 278 279 281 282 283 284 284 283 283 283 282 282 283 283 284 284 285 286 287 287 287 288 287 288 288
280 279 280 279 279 279 278 277 277 276 276 276 277 278 279 279 280 282 283 284 285 285 285 284 284 283 283 284 284 284 285 285 286 286 286 287 287 287
280 280 281 279 279 279 278 278 278 276 275 275 276 277 278 278 279 280 281 283 283 284 285 285 285 285 284 284 284 286 286 286 286 285 285 286 287 287
280 281 281 280 279 279 278 277 277 277 276 274 276 276 276 277 279 280 280 281 282 283 283 283 284 285 287 287 285 285 286 286 285 285 285 285 286 286
281 281 281 280 280 279 278 277 276 276 276 275 275 275 276 276 278 278 279 279 280 281 282 283 283 283 284 285 286 285 285 285 285 286 286 286 285 285
282 282 281 281 280 279 278 277 277 276 275 276 275 275 275 275 277 277 278 278 279 280 281 281 282 282 283 284 285 285 285 285 285 285 285 285 285 285
282 282 282 281 280 279 278 277 277 276 276 275 275 275 275 274 275 276 277 277 278 279 279 280 280 281 282 283 285 284 284 284 284 284 284 284 285 286
282 282 282 281 280 279 278 277 277 276 276 276 276 275 275 275 275 274 276 276 277 277 278 279 280 281 282 282 283 284 283 283 283 283 283 283 283 284

GFSNE_850_thetae_015.txt.gz
Theta_e
293 293 292 292 291 291 290 290 290 290 290 289 289 289 288 288 288 288 288 288 288 288 288 288 288 290 293 293 294 295 298 302 305 307 310 310 309 308
292 292 292 292 292 291 290 290 290 289 289 289 288 288 287 287 287 287 287 287 287 288 288 288 289 289 292 294 294 295 297 300 299 302 308 309 308 308
292 292 292 291 291 290 290 289 288 288 288 288 287 287 286 286 286 286 286 286 287 288 289 289 290 289 291 293 292 294 295 299 300 300 301 305 306 307
292 292 291 290 290 289 288 288 287 287 287 286 286 286 286 285 285 285 286 286 287 287 289 290 289 289 291 292 291 291 292 296 297 299 299 300 302 306
291 291 290 290 289 287 287 286 286 285 285 285 285 284 284 284 285 285 285 286 287 287 288 289 288 288 289 289 290 290 290 292 297 298 299 300 300 304
291 290 289 287 286 285 284 284 284 284 284 283 283 283 284 284 285 285 285 285 286 287 288 290 289 288 288 289 289 290 291 291 294 296 297 299 300 301
289 288 286 285 284 283 282 282 282 282 282 282 282 283 283 284 284 284 285 285 285 286 287 289 289 289 290 290 291 290 290 294 295 296 297 298 299 301
287 286 285 284 284 282 282 281 281 281 281 281 282 282 282 282 283 283 284 284 285 285 286 287 288 289 289 290 290 288 289 292 295 296 296 299 300 302
286 285 284 284 283 283 282 281 281 281 281 281 282 282 282 282 282 282 283 284 284 284 285 286 286 288 288 289 288 288 288 291 293 295 295 296 297 298
285 284 284 283 282 282 279 280 281 281 281 281 281 281 281 280 280 281 282 282 282 283 284 285 285 286 287 288 288 287 287 290 292 293 293 294 295 294
284 284 283 281 281 279 280 279 280 280 281 280 280 279 279 280 280 280 281 281 282 283 284 285 285 286 286 287 287 287 286 288 291 292 293 293 293 292
284 283 283 281 280 278 277 277 279 280 278 278 279 280 281 282 282 281 282 282 282 283 284 285 286 286 286 286 287 287 286 287 290 292 292 292 291 292
283 283 283 281 279 278 277 278 278 276 277 279 280 280 281 282 282 283 283 283 283 283 283 284 285 285 286 287 288 288 287 287 288 290 292 291 291 292
282 282 281 280 279 279 279 278 277 278 279 279 279 281 281 281 282 282 282 283 283 283 283 283 284 285 285 287 288 288 287 288 288 289 290 291 292 292
282 281 281 280 280 280 279 279 279 279 278 279 279 280 280 280 281 283 283 284 283 283 283 283 284 284 285 285 286 287 288 288 288 288 290 290 290 290
282 282 281 281 281 280 281 281 280 279 278 278 279 279 280 280 281 282 283 284 285 284 284 283 282 283 284 284 285 286 287 288 288 287 288 289 289 289
282 281 282 282 282 282 281 281 280 280 279 277 278 278 279 280 281 281 282 283 285 286 286 284 284 283 283 283 284 285 285 286 287 288 287 288 288 288
282 281 282 282 282 281 281 281 280 280 279 277 278 278 278 279 279 281 281 282 283 284 285 285 285 284 284 284 284 286 286 285 285 286 286 287 287 287
282 282 283 282 282 281 281 281 280 279 278 278 277 277 277 278 279 280 280 281 281 282 283 284 285 286 287 286 287 284 286 287 287 286 286 285 286 287
282 282 282 282 282 282 281 281 280 279 278 277 277 277 277 277 278 279 279 279 280 281 282 283 284 283 283 285 286 285 285 286 287 286 286 286 286 286
283 284 284 283 282 282 281 280 279 278 278 277 277 277 277 277 277 278 279 279 279 281 281 281 282 281 283 284 285 285 285 285 285 286 287 287 286 286
283 283 283 283 283 282 281 280 279 279 278 278 278 277 277 277 277 277 277 278 279 279 279 280 281 282 283 284 285 285 285 285 285 285 285 285 286 286
284 284 283 283 283 282 281 280 279 279 278 278 277 277 276 276 277 277 277 277 278 278 278 280 281 282 283 283 284 285 284 284 284 284 284 284 284 285

GFSNE_850_thetae_021.txt.gz
Theta_e
295 295 294 294 292 292 292 292 291 290 290 289 289 288 288 288 288 287 287 287 286 285 284 284 286 287 288 289 290 289 290 291 292 293 294 296 299 299
294 294 294 293 292 292 292 290 290 289 288 288 288 287 286 286 286 286 285 284 284 284 285 285 285 286 287 287 288 289 289 289 290 292 293 294 297 299
294 293 292 292 292 292 290 290 289 288 287 287 286 285 285 284 284 284 283 283 284 284 284 285 286 286 286 287 288 289 290 289 290 291 292 292 294 297
293 292 292 292 291 290 289 288 287 286 285 284 283 283 283 282 282 282 282 283 283 284 284 285 285 285 286 287 288 289 288 289 289 290 292 291 293 294
291 291 291 290 289 288 287 287 286 285 283 283 282 281 281 281 281 282 282 281 282 282 282 283 284 285 286 286 288 288 288 289 289 290 291 291 291 295
291 290 289 289 288 287 286 285 284 283 283 282 281 281 281 281 281 282 282 282 281 282 282 284 284 284 285 287 289 287 287 288 289 289 290 290 291 294
288 288 288 288 287 286 285 284 284 283 282 281 280 281 281 281 281 282 281 281 280 280 281 282 283 283 284 288 288 288 289 288 287 289 289 292 291 294
287 287 286 285 286 285 284 284 283 282 279 280 280 280 281 281 281 280 280 279 279 280 280 281 281 282 282 285 287 288 289 288 287 288 290 292 293 294
288 286 285 285 285 284 284 283 281 280 279 279 280 280 280 280 279 279 279 280 281 281 280 280 281 281 282 284 285 286 287 287 286 287 290 293 293 295
287 286 285 284 284 284 283 282 281 280 279 279 280 279 279 278 279 280 281 281 282 282 281 282 282 282 284 284 284 285 286 286 286 286 289 293 294 295
286 286 284 284 284 283 283 282 280 280 280 279 279 279 279 280 281 281 281 282 282 282 282 282 282 282 284 284 285 285 285 286 286 286 290 292 293 294
286 285 284 283 283 283 282 280 280 280 280 280 279 279 279 280 280 280 281 281 282 283 283 282 282 283 283 285 286 285 286 286 287 287 290 291 292 293
286 284 283 283 282 282 281 280 280 280 280 279 279 278 279 279 280 280 281 281 282 283 283 284 282 282 283 283 284 286 286 287 287 287 289 291 291 292
286 285 283 282 281 281 281 281 281 280 280 279 279 279 278 279 279 280 280 281 282 283 284 284 282 283 282 283 284 285 287 287 288 288 289 289 291 291
286 285 284 283 282 281 281 281 281 281 280 280 279 279 278 278 279 279 280 281 282 283 284 285 283 283 283 282 284 284 285 287 288 288 289 290 290 291
286 285 284 283 282 282 282 281 281 281 280 280 279 279 278 278 278 279 280 281 281 283 285 285 284 284 283 282 283 283 284 285 287 289 288 289 290 291
285 285 284 284 283 282 282 281 281 281 281 280 280 279 278 278 278 279 280 280 280 281 283 284 285 284 283 282 282 282 283 283 284 287 287 288 290 290
286 285 283 283 283 282 282 282 281 281 281 280 280 278 278 277 277 278 279 279 279 280 282 282 283 284 285 285 284 283 283 284 284 285 287 288 289 289
286 286 284 283 283 282 282 282 281 281 281 281 279 278 278 277 277 277 277 278 279 280 280 280 282 282 283 284 285 285 284 285 285 285 285 286 287 287
286 285 285 283 282 282 282 282 282 281 281 280 279 278 278 277 277 277 277 277 278 279 279 279 280 281 281 283 284 285 286 285 286 286 286 286 285 286
286 285 284 283 283 283 283 283 283 282 282 281 279 278 278 277 277 277 277 277 277 278 278 278 280 281 282 283 284 285 285 284 285 286 286 286 285 285
286 286 285 284 283 283 283 284 283 283 282 281 280 279 278 278 277 277 277 277 277 277 277 279 280 282 283 284 284 285 285 285 285 286 286 285 286 286
287 286 286 285 284 283 283 283 283 282 282 282 280 279 278 278 278 277 277 277 277 276 276 279 280 281 282 283 283 284 284 284 284 284 285 285 285 285

GFSNE_850_thetae_024.txt.gz
Theta_e
294 295 294 293 294 293 292 292 291 290 290 290 289 288 287 287 286 286 285 285 284 284 283 284 285 286 287 287 288 288 289 291 291 291 291 292 294 296
294 294 294 294 293 293 292 291 290 290 289 288 287 286 285 284 283 283 283 283 283 283 283 284 284 285 286 286 287 287 288 289 290 291 291 292 293 294
293 293 293 292 292 292 291 291 290 288 287 286 285 284 283 282 282 282 282 282 282 282 282 283 284 284 285 285 285 286 287 288 289 290 289 290 291 293
293 292 292 292 291 291 290 288 287 286 285 284 283 282 282 281 281 281 281 281 281 281 282 282 282 283 284 284 285 285 286 287 288 288 288 289 290 291
292 291 291 291 290 289 288 287 286 286 284 283 282 281 281 281 281 281 281 281 281 281 281 281 282 283 284 284 284 285 287 288 288 288 289 289 289 290
290 291 289 289 288 287 287 286 285 284 283 283 281 280 280 281 281 281 281 280 280 280 280 280 280 282 283 283 283 287 288 288 287 287 288 289 289 290
292 290 287 286 286 285 285 285 284 284 283 281 280 279 280 280 280 280 280 279 280 280 281 281 280 281 282 282 283 287 287 288 288 287 287 288 289 290
291 289 287 286 285 285 285 284 283 283 281 280 279 278 280 280 280 279 279 279 280 281 281 281 281 281 281 281 282 286 287 287 287 287 286 287 289 290
291 289 287 286 285 284 284 283 283 282 281 279 279 279 279 278 279 279 280 281 281 282 281 282 282 282 282 282 283 285 286 286 286 286 286 286 288 292
290 288 287 286 285 284 283 283 282 282 280 280 280 279 278 279 279 280 281 281 281 281 282 282 282 282 282 284 284 285 285 285 285 285 286 286 288 291
289 287 286 284 284 283 283 282 282 281 280 280 280 279 278 279 280 280 280 280 280 281 282 282 283 283 282 285 285 286 286 285 285 286 286 287 289 292
288 287 286 284 283 283 282 282 281 280 280 280 280 279 278 278 279 279 280 280 280 281 282 282 283 283 282 284 283 284 285 285 286 286 287 288 290 291
287 287 286 285 283 283 282 281 281 280 280 280 279 279 279 279 278 279 279 280 280 281 282 283 283 283 282 282 282 283 285 287 287 287 288 289 290 290
288 287 286 285 284 282 281 281 281 281 280 280 280 279 279 279 278 278 279 279 280 281 282 284 283 283 282 282 282 283 285 286 287 288 288 289 290 290
288 287 286 285 284 283 282 281 281 281 280 280 280 280 279 278 278 278 279 280 281 282 284 283 284 283 283 282 282 283 283 285 286 288 288 289 289 291
289 287 286 285 284 284 283 282 281 281 280 280 280 280 279 278 278 278 279 280 280 282 283 283 284 284 284 283 282 282 283 283 283 285 288 288 289 290
289 287 286 286 285 284 283 282 281 281 281 280 280 280 279 278 278 278 278 279 279 280 282 283 284 284 284 284 283 282 282 282 283 284 288 288 289 289
288 287 287 286 285 285 283 282 282 281 281 281 280 280 279 278 278 278 277 278 279 280 280 281 282 283 284 284 284 284 283 283 284 284 285 288 287 288
287 287 286 286 286 285 283 282 282 281 281 281 281 280 278 278 277 277 277 277 278 279 279 279 280 281 282 283 284 284 284 284 285 285 285 286 287 287
287 287 286 286 286 285 284 282 282 282 282 282 281 281 279 278 278 277 277 277 277 277 278 278 279 280 281 281 283 285 285 285 285 286 286 285 285 286
287 287 287 286 286 285 284 282 282 282 282 282 282 281 280 278 278 277 277 277 277 277 276 278 280 281 282 282 283 284 285 284 284 285 286 285 285 285
287 287 287 287 286 285 284 283 283 283 283 282 282 282 280 279 278 278 277 277 277 277 276 279 280 282 283 283 284 284 284 284 285 286 286 285 286 285
286 286 287 287 287 286 285 284 283 283 283 282 282 282 281 280 278 278 277 277 277 277 276 278 279 281 282 282 283 283 284 284 284 284 285 285 286 285

GFSNE_850_thetae_027.txt.gz
Theta_e
294 294 293 293 293 293 293 293 292 291 290 290 290 288 287 285 284 283 282 282 283 283 283 283 284 285 286 286 287 287 288 288 289 290 292 292 291 292
292 292 293 293 294 293 292 292 292 291 290 289 287 286 285 283 282 282 282 282 282 282 282 282 283 284 285 285 286 286 287 287 288 289 290 291 291 291
293 292 292 292 292 292 291 291 290 289 288 287 286 284 283 282 281 282 282 281 281 281 281 281 282 282 282 283 284 285 285 285 285 287 288 290 290 291
293 292 292 291 291 291 290 289 288 287 286 285 284 283 282 281 280 281 282 281 281 281 280 280 280 281 281 283 283 283 284 284 285 286 287 288 289 290
293 292 292 290 290 288 288 287 286 285 284 284 283 282 281 281 281 281 281 281 280 279 280 280 280 280 280 281 283 283 283 283 287 288 288 288 288 288
293 292 291 291 288 287 286 285 284 284 284 283 282 281 280 280 280 280 281 280 279 280 281 281 281 281 280 281 282 283 283 284 286 288 288 288 287 288
293 292 292 290 289 287 286 285 284 284 283 282 281 280 280 280 280 279 279 280 280 281 281 281 281 281 281 281 281 282 282 285 286 287 287 287 287 287
293 292 291 290 288 287 286 285 284 283 283 282 281 280 280 279 279 279 279 280 280 281 281 281 282 282 282 282 281 281 282 285 286 287 287 286 286 286
292 291 290 289 288 286 285 284 283 283 282 282 280 280 280 279 278 278 279 280 280 280 280 281 282 283 283 282 284 284 283 285 286 285 285 285 285 285
291 291 290 289 286 285 284 283 283 282 282 280 280 280 279 279 278 279 279 280 280 280 280 281 282 283 283 282 284 285 285 284 285 285 285 285 285 286
291 290 289 288 286 285 283 283 282 282 281 280 280 280 279 279 278 278 279 279 279 280 281 281 282 282 283 283 284 283 285 285 285 285 285 285 286 288
291 290 288 287 287 285 283 283 282 281 281 280 280 280 279 279 279 278 278 279 279 279 280 280 282 282 282 283 283 282 283 285 285 286 286 286 287 288
291 290 288 287 287 285 283 283 281 281 281 280 280 280 279 279 279 278 278 278 279 279 280 281 282 283 282 283 282 282 282 284 285 287 286 288 288 289
290 290 289 288 287 285 284 282 282 281 281 280 280 280 280 279 279 278 278 278 279 280 280 282 282 283 283 283 282 282 282 284 285 287 288 288 289 289
289 290 289 288 287 286 285 283 283 282 281 281 280 280 280 279 279 278 278 278 279 280 280 282 282 284 284 283 283 283 282 283 285 284 287 288 289 289
289 288 289 288 287 286 285 284 283 282 281 281 281 280 280 279 279 278 278 278 278 279 280 282 282 284 284 284 283 282 282 282 284 284 287 287 288 289
288 288 288 288 287 286 286 285 283 282 282 281 281 280 280 279 278 278 278 278 277 278 280 281 282 282 284 284 284 284 283 282 283 284 286 287 288 290
288 287 287 287 287 287 286 285 284 282 282 281 281 281 280 280 278 278 277 277 277 278 279 279 280 282 283 284 284 283 283 284 285 284 285 287 287 288
288 287 287 287 286 286 286 285 285 283 282 281 281 281 280 280 278 278 278 278 277 277 277 278 278 279 281 282 284 283 284 284 285 285 285 286 287 287
287 288 288 288 287 287 286 285 285 283 282 281 282 281 281 280 279 278 278 278 277 277 277 277 278 280 280 281 282 283 284 284 285 285 285 285 286 286
287 287 287 287 287 287 287 286 285 284 282 282 282 281 281 281 280 278 278 278 277 277 276 278 280 281 282 282 283 283 284 284 285 285 285 285 285 285
287 287 287 287 286 286 287 286 285 284 282 282 282 282 281 281 281 279 278 278 278 277 277 276 279 281 282 283 283 284 284 284 285 285 285 285 285 285
286 286 286 286 286 286 286 286 286 285 283 283 283 283 282 281 281 279 278 278 278 277 277 276 278 280 281 282 283 283 283 284 284 284 284 285 285 285

GFSNE_850_thetae_030.txt.gz
Theta_e
293 294 292 292 293 293 294 293 292 292 291 291 290 289 287 286 285 283 282 282 282 282 282 282 282 283 284 285 286 286 287 288 288 289 289 290 291 292
293 293 292 291 291 292 292 292 291 291 290 290 288 286 285 284 283 282 281 281 282 282 281 281 282 283 283 283 284 284 285 286 287 287 288 288 290 291
294 293 291 291 292 291 291 291 291 290 289 287 286 285 284 283 282 281 281 281 281 281 281 281 280 281 281 281 282 282 285 285 286 286 286 287 288 290
294 293 292 291 291 291 291 289 288 287 287 286 284 284 283 282 281 281 281 281 281 281 280 279 280 280 281 281 281 281 283 284 284 284 284 286 287 288
293 293 293 292 291 291 288 287 286 286 285 284 284 283 282 281 281 281 281 281 280 280 280 280 281 281 281 281 281 281 281 282 283 283 283 286 288 288
293 294 293 292 291 291 289 287 286 285 284 284 283 283 282 281 280 280 281 280 279 280 281 281 281 281 281 281 281 281 281 281 282 282 285 286 287 288
293 293 293 292 291 290 288 287 286 285 284 283 283 282 281 280 280 280 279 279 280 281 280 281 281 282 282 282 282 282 281 281 281 282 285 286 287 288
293 293 293 292 291 289 288 287 286 284 283 283 282 282 280 280 280 279 279 279 279 280 280 281 281 282 282 283 282 282 283 282 282 282 286 286 286 286
293 293 293 291 290 289 288 286 284 284 283 283 282 281 280 279 279 279 278 278 279 279 279 280 281 282 282 283 283 283 284 284 284 284 286 285 285 285
292 293 292 291 290 289 287 286 284 283 283 282 281 280 280 279 279 279 279 278 278 279 279 280 281 281 282 283 283 283 283 284 284 285 285 285 285 285
292 292 291 290 289 288 286 286 284 283 282 281 280 280 280 279 279 279 279 278 278 279 280 280 280 281 283 283 283 283 283 282 283 284 284 284 285 285
291 291 291 290 289 288 287 286 284 283 282 281 280 280 280 279 279 279 279 278 278 277 279 279 280 280 281 283 283 283 282 282 282 285 285 285 286 286
291 291 291 290 289 288 287 287 285 283 282 281 281 280 280 279 279 279 279 278 278 278 279 279 280 281 281 282 283 283 282 282 283 285 286 287 287 288
291 290 290 290 290 288 287 287 286 283 282 281 281 280 280 280 280 279 279 278 278 278 279 279 280 281 282 283 283 283 283 282 283 285 286 287 288 288
290 290 289 289 289 289 288 287 286 285 283 282 281 281 280 280 280 279 279 279 279 278 279 280 281 281 282 283 283 283 282 283 284 285 286 287 288 289
288 288 288 287 287 288 288 287 286 286 284 283 282 281 281 280 280 279 278 279 279 279 278 280 280 281 282 283 284 283 283 282 282 284 286 287 287 289
288 287 288 288 287 287 287 287 286 286 285 284 282 281 281 280 280 279 278 278 278 278 278 278 280 280 281 282 283 283 283 283 284 285 287 287 288 289
289 288 287 288 287 287 287 287 286 286 285 284 282 281 281 281 280 279 278 278 278 278 277 277 278 279 281 282 283 283 283 284 285 285 287 287 287 288
288 288 287 287 288 287 287 287 286 286 286 285 283 282 281 281 280 280 278 278 278 278 278 276 277 278 280 281 282 283 283 284 285 285 286 287 287 287
287 287 288 287 287 287 287 287 287 286 285 285 283 282 281 281 281 280 279 278 278 278 278 277 279 280 280 280 281 283 282 284 284 285 285 285 286 287
286 286 287 287 287 287 286 286 286 286 286 285 283 282 281 281 281 280 280 278 278 278 278 277 279 280 281 281 282 282 283 283 284 284 285 285 285 286
285 286 286 287 286 286 286 286 286 286 286 285 284 282 281 282 281 281 280 278 278 278 278 277 278 280 282 282 282 283 283 283 284 285 285 285 285 285
284 285 287 286 286 286 286 286 286 286 286 285 285 282 282 282 281 281 280 279 278 278 278 278 277 280 281 282 282 283 283 283 283 284 284 285 285 285

GFSNE_850_thetae_033.txt.gz
Theta_e
293 293 293 292 292 292 292 293 293 292 292 291 290 289 288 287 286 284 284 283 282 282 282 282 282 283 283 284 285 285 286 286 287 288 288 289 290 290
293 292 293 292 291 291 291 291 291 292 291 290 290 289 287 285 284 283 283 282 282 282 282 282 282 282 282 283 283 283 284 284 285 287 288 288 288 289
293 294 293 292 291 291 291 291 291 291 290 289 288 286 285 284 284 282 282 282 282 282 282 281 281 281 281 281 281 282 282 283 284 285 286 287 287 288
293 293 294 293 292 291 291 291 290 289 288 288 287 285 284 284 283 282 281 281 281 281 281 281 281 280 281 281 281 281 282 282 283 283 284 285 285 286
294 294 293 293 293 292 291 291 289 288 287 286 286 285 284 283 282 281 281 281 281 281 281 281 281 281 281 281 282 281 281 281 282 282 283 283 283 285
294 294 294 293 293 292 291 291 289 288 286 285 285 284 283 282 281 281 281 281 281 281 281 281 281 281 281 282 282 282 282 282 281 281 282 282 282 284
294 294 294 293 293 293 291 290 289 288 286 285 284 284 283 282 281 281 281 281 281 281 281 282 282 282 283 283 283 283 282 282 283 282 282 282 282 286
293 293 293 293 293 293 291 290 289 288 286 285 284 283 283 282 280 281 280 280 281 281 281 281 281 282 282 283 283 283 283 283 284 284 284 282 284 286
292 292 293 293 293 293 292 290 289 288 285 284 283 283 282 280 280 280 281 280 280 280 280 281 281 282 282 282 283 283 283 283 284 284 284 285 285 285
290 291 292 292 293 292 291 290 289 287 285 284 283 282 281 280 280 280 280 280 280 280 280 280 281 282 282 283 283 283 283 283 283 282 283 283 284 284
290 291 292 292 292 292 291 289 288 287 286 284 283 282 281 280 280 280 280 280 280 280 280 280 281 281 282 283 284 283 283 283 283 283 282 283 284 285
289 290 291 292 291 291 290 289 288 287 286 284 283 282 281 280 280 280 280 280 280 280 280 279 280 281 281 283 283 284 283 283 282 282 282 284 285 286
289 289 290 291 291 291 290 289 289 287 286 285 283 282 281 281 281 280 280 279 279 279 280 279 279 279 280 281 283 283 284 283 283 283 283 285 286 286
290 289 289 289 291 290 290 289 289 287 286 285 284 283 282 281 281 281 280 279 279 279 279 278 278 279 280 281 282 283 284 284 284 283 286 286 286 287
290 290 290 289 290 290 289 289 289 288 287 285 285 284 283 281 281 280 280 279 279 279 278 278 278 279 280 280 282 282 283 284 283 283 286 287 286 287
290 290 290 289 288 288 288 288 287 287 287 286 285 285 283 282 281 280 280 279 279 279 279 278 278 279 279 280 281 282 284 283 283 284 286 287 286 288
286 288 288 289 288 288 288 288 287 287 286 286 285 285 283 282 281 281 280 279 278 279 279 279 278 278 278 280 281 283 283 283 284 285 286 287 286 288
282 285 287 287 288 288 287 288 287 287 286 286 285 285 284 282 281 281 280 279 279 279 279 279 278 279 280 281 281 282 282 283 284 285 286 287 286 287
283 283 286 287 287 287 288 287 288 287 287 286 286 285 284 283 281 281 280 280 279 279 279 279 278 279 280 282 282 282 283 283 284 285 285 286 286 287
283 284 284 285 286 286 287 287 287 287 286 286 286 285 285 283 282 281 280 280 279 278 278 279 278 279 279 280 280 282 282 283 284 285 285 285 286 286
280 281 283 285 286 285 286 286 286 285 286 286 285 285 285 283 282 281 281 280 279 278 278 279 278 280 281 281 281 282 282 283 284 285 285 285 285 285
279 279 280 282 285 286 286 286 285 285 286 286 285 285 285 283 282 281 281 281 279 278 278 279 277 280 281 281 282 282 282 283 283 284 285 285 285 285
277 277 279 279 280 283 284 285 285 285 285 285 285 285 285 284 282 281 281 281 280 278 278 279 277 279 280 282 282 282 283 283 283 283 284 284 285 285

GFSNE_850_thetae_036.txt.gz
Theta_e
301 299 298 297 297 296 295 295 295 295 295 294 293 293 292 291 290 288 287 286 285 283 283 282 282 282 282 283 284 285 285 286 287 287 288 288 289 290
298 298 297 296 296 295 295 295 295 294 294 293 293 292 292 290 289 287 286 285 284 283 282 282 282 282 282 282 283 283 283 284 285 285 286 287 288 289
298 297 296 296 295 295 295 294 294 293 293 293 292 291 290 289 288 287 286 285 284 283 283 282 282 281 281 281 281 281 282 283 284 284 285 285 286 288
297 297 296 296 295 295 295 294 294 293 292 292 291 290 289 289 287 286 285 284 284 284 283 282 282 281 281 281 281 281 282 282 283 283 283 284 285 286
296 296 296 296 295 295 295 294 293 293 292 291 290 290 289 288 287 286 285 284 284 283 283 282 282 282 281 281 281 282 283 282 282 282 283 283 283 284
295 295 295 295 295 295 294 294 293 292 291 290 290 289 288 287 286 285 285 284 284 284 283 284 283 283 283 283 283 283 283 283 283 282 282 283 282 282
296 295 295 295 295 294 294 294 293 292 291 290 289 289 288 287 286 285 284 284 284 284 284 284 284 284 284 284 284 284 284 283 283 282 284 285 285 283
295 295 295 295 294 294 293 293 293 292 291 290 289 288 287 286 286 284 284 284 284 284 283 283 283 284 284 284 284 283 283 283 283 283 284 284 284 284
294 295 294 294 294 293 293 293 293 292 291 289 289 287 287 286 285 283 283 283 283 283 283 283 283 283 284 284 284 284 283 283 283 283 283 283 283 283
293 293 293 293 293 293 292 292 291 291 291 290 288 287 286 285 284 283 283 283 283 283 283 283 283 284 284 284 284 284 284 284 283 283 283 283 283 283
292 292 292 292 292 292 292 292 292 291 290 289 288 286 285 283 282 281 283 283 283 283 283 283 283 283 283 284 285 285 284 284 284 284 283 282 283 282
291 291 291 290 289 291 292 292 291 291 290 288 287 287 286 284 283 281 282 283 283 283 283 283 282 282 282 283 285 284 284 285 285 284 285 284 284 284
291 291 291 291 290 289 291 291 291 291 290 289 288 286 286 284 284 283 283 283 283 283 282 281 282 282 282 282 283 284 284 284 285 285 286 286 286 286
289 290 290 290 290 290 290 289 290 290 289 289 287 286 286 285 285 284 283 283 283 282 281 281 281 281 282 281 282 283 284 284 285 285 285 285 286 286
286 286 287 288 289 290 290 290 289 289 289 288 288 286 286 285 285 284 283 283 282 282 281 281 281 281 281 281 282 283 284 284 285 284 285 285 287 286
281 281 282 283 285 287 288 288 289 289 288 288 287 286 286 285 284 284 283 283 282 282 282 281 281 281 281 281 282 283 284 285 285 284 285 286 287 285
281 282 283 284 285 285 287 288 288 288 288 287 287 286 286 285 284 284 283 283 282 282 282 282 282 281 281 281 281 283 284 284 284 284 285 286 286 286
281 283 285 285 285 286 287 288 287 287 287 287 286 286 285 284 284 284 283 283 283 282 282 282 282 282 282 283 283 283 283 284 283 284 285 286 286 286
280 280 281 282 283 285 287 287 287 287 287 287 287 286 285 284 284 284 283 282 282 282 282 282 282 281 282 283 284 283 282 282 284 285 285 286 286 286
277 278 278 278 279 281 284 287 286 286 286 286 286 286 285 284 284 284 283 283 283 282 282 281 282 281 282 282 281 282 283 283 284 284 285 285 286 286
275 275 275 276 276 278 280 284 286 285 286 286 286 285 285 284 284 284 283 283 282 282 281 281 282 280 280 281 282 284 283 283 283 284 285 285 286 286
273 273 273 273 274 276 280 281 284 286 285 285 285 285 284 284 284 284 283 283 281 281 281 281 281 280 282 282 283 283 283 283 283 283 284 285 285 285
271 271 271 272 273 274 278 280 281 284 285 285 285 285 284 284 284 284 283 282 282 282 281 281 281 280 281 282 282 283 283 283 283 284 284 284 284 284

GFSNE_850_thetae_039.txt.gz
Theta_e
299 304 303 301 300 299 299 298 298 297 297 297 296 296 295 294 294 293 292 290 289 287 286 285 284 283 282 282 282 283 285 286 286 287 287 287 288 288
304 302 301 301 299 299 297 297 297 297 296 296 295 295 294 293 293 292 290 289 288 287 286 284 284 283 282 282 282 283 284 284 285 285 286 286 287 287
301 301 300 300 298 297 297 296 296 296 295 295 295 294 294 293 292 291 290 289 288 286 285 284 284 283 282 283 282 282 282 283 284 284 285 285 286 286
301 301 300 299 297 297 297 296 296 296 295 295 295 294 293 292 291 291 289 288 287 286 285 285 284 283 284 283 283 282 282 282 283 283 284 284 284 285
301 300 298 298 297 297 297 296 296 296 295 294 294 293 292 292 291 290 289 288 287 286 285 285 284 284 284 284 284 284 283 283 283 283 284 284 283 284
300 298 298 297 297 297 297 296 296 295 295 294 294 293 292 291 290 289 288 288 287 286 286 285 285 285 285 285 285 285 285 284 284 284 283 284 283 285
299 298 297 297 297 296 296 296 295 295 295 294 294 292 292 291 290 289 288 288 286 286 286 286 285 285 285 285 285 285 285 284 284 283 283 283 283 285
298 297 297 297 297 296 296 295 294 294 294 294 293 292 292 291 290 289 288 287 286 286 286 285 285 285 285 285 285 285 285 284 284 283 283 283 283 284
297 296 296 295 295 294 294 294 294 293 293 293 293 292 292 291 290 289 288 287 285 285 285 285 285 285 285 285 285 285 285 284 284 284 284 283 283 283
295 294 294 294 294 294 294 294 294 294 293 293 293 292 291 290 289 288 287 285 285 285 285 285 285 285 285 284 284 284 284 285 284 284 285 284 284 283
293 293 293 293 293 292 293 293 293 293 293 293 292 291 290 290 288 287 285 284 284 285 285 285 285 284 284 284 284 284 285 284 285 285 285 285 285 285
292 292 292 292 292 292 292 291 291 291 292 292 292 291 290 289 288 286 285 283 284 284 285 285 284 284 283 283 284 283 283 283 285 285 285 286 286 286
289 289 289 289 290 291 291 291 291 290 290 291 292 291 289 288 287 287 286 284 284 284 285 284 283 283 283 283 283 283 283 283 284 285 286 285 286 286
284 283 284 283 283 283 284 287 290 290 290 290 290 290 290 289 287 287 285 285 285 285 284 284 283 283 282 282 283 282 283 283 284 285 285 285 286 286
281 281 281 281 281 282 282 283 283 287 288 289 289 289 289 289 288 287 286 286 285 285 284 283 283 282 282 282 282 282 283 283 284 285 285 285 286 287
279 279 279 282 285 286 286 286 286 286 287 288 288 289 289 288 288 287 286 285 284 284 284 284 283 283 282 282 282 282 282 283 284 284 284 286 287 286
278 279 282 283 283 284 285 286 287 287 287 288 288 289 288 287 287 286 286 285 284 284 284 284 283 283 283 283 282 283 284 284 284 284 285 286 287 286
278 281 281 280 281 281 281 283 284 285 288 288 288 288 288 287 287 286 285 285 284 284 284 284 283 283 283 283 284 284 284 283 283 284 285 286 286 285
279 279 279 279 278 278 279 280 281 284 286 288 287 287 287 287 287 286 285 285 284 284 284 284 283 283 283 283 283 284 283 282 283 284 285 286 286 285
278 278 277 277 277 276 277 277 278 281 285 286 286 287 287 287 286 286 285 285 284 284 284 284 283 283 283 283 282 282 283 283 283 284 285 286 287 286
276 276 276 275 275 274 275 276 277 280 282 285 286 287 286 286 286 286 285 285 284 284 284 283 283 283 282 281 282 284 284 283 283 284 285 285 286 285
274 274 273 273 273 273 273 274 275 279 281 282 286 286 286 286 285 285 285 285 284 283 283 283 283 282 281 283 283 284 285 284 284 284 284 285 285 284
272 272 272 271 271 272 272 273 274 277 278 280 282 285 285 285 285 285 285 285 284 283 283 283 282 282 281 283 283 283 284 284 284 285 284 284 284 284

GFSNE_850_thetae_042.txt.gz
Theta_e
306 304 302 302 303 301 300 300 299 298 298 297 298 297 296 295 295 294 294 294 293 292 291 289 288 286 285 284 283 283 283 285 285 286 286 287 287 288
303 303 304 303 302 301 300 299 298 297 297 297 297 296 296 295 294 294 293 293 292 291 290 288 287 286 285 284 283 283 283 283 284 285 286 286 287 287
303 303 303 301 301 301 300 299 297 297 296 296 296 295 295 295 294 293 293 292 291 290 289 288 287 286 285 284 284 284 284 284 283 284 285 285 286 286
302 302 302 301 301 300 298 298 297 297 296 296 296 295 294 295 294 293 292 291 291 290 289 288 286 285 285 285 285 285 284 284 283 283 283 284 285 285
301 302 300 300 299 298 298 298 297 297 297 296 296 295 295 294 294 293 292 291 290 289 288 287 286 286 285 285 285 285 285 285 285 284 284 284 284 284
301 300 299 299 298 298 297 297 297 297 297 297 296 296 295 295 294 292 291 291 290 289 288 288 286 286 286 285 285 285 285 285 285 285 284 284 283 283
299 298 298 297 297 297 297 297 297 297 296 297 296 296 295 295 293 292 291 290 289 289 288 287 286 286 286 285 285 285 285 285 285 284 284 284 284 284
299 298 297 298 297 297 296 296 296 296 296 296 295 294 295 294 293 292 291 290 289 288 288 286 285 285 285 285 285 285 285 284 285 284 284 284 284 284
298 296 296 294 295 295 295 295 294 294 295 295 295 294 293 293 293 292 291 290 289 288 287 286 285 284 285 285 285 285 284 284 284 284 284 284 285 285
296 294 294 293 293 293 293 293 293 293 293 293 294 294 294 293 293 292 292 290 289 288 287 285 285 285 285 285 284 284 283 284 284 285 284 284 285 285
291 291 292 292 292 292 292 292 292 292 291 291 291 291 292 293 292 291 291 290 289 288 286 285 285 285 285 284 284 283 284 283 283 283 283 284 285 286
290 289 288 287 287 287 288 289 289 289 290 290 290 291 290 291 291 291 291 289 288 288 288 285 285 285 284 284 283 283 282 282 282 283 284 285 285 285
286 285 284 283 283 282 281 281 282 282 281 282 284 287 289 290 290 291 290 288 289 288 287 285 285 285 284 283 283 282 282 282 283 283 284 285 285 285
283 283 282 282 281 281 282 285 285 286 286 285 284 285 288 288 290 290 289 289 287 287 285 285 285 284 284 283 282 282 282 282 282 282 284 284 285 286
282 281 281 280 280 283 283 283 284 286 287 287 286 286 286 287 288 289 289 288 286 286 285 285 285 284 283 283 282 282 282 282 283 283 284 284 286 286
281 280 280 280 282 282 281 281 281 282 284 285 286 287 286 288 288 289 289 288 286 286 286 285 284 283 283 283 282 282 282 283 284 284 284 286 286 286
279 279 280 280 280 279 279 279 279 280 281 282 284 285 287 287 288 289 289 287 287 286 285 284 284 284 283 283 283 282 284 283 284 283 285 286 286 285
279 279 279 279 278 278 277 277 277 278 279 281 283 286 287 287 288 288 287 287 286 286 285 284 284 284 283 283 283 284 283 284 283 283 284 285 286 285
278 278 278 277 277 276 276 276 276 275 277 280 282 285 287 287 287 288 287 286 286 285 285 284 284 284 283 283 283 283 283 283 283 284 284 285 286 286
277 277 276 276 275 275 275 274 274 274 276 278 280 284 285 286 288 287 286 286 286 285 285 284 284 284 283 283 283 282 282 283 283 284 285 285 286 285
275 275 274 274 274 273 273 273 273 273 274 276 279 281 285 287 287 287 286 286 286 285 285 284 284 283 283 283 283 282 284 283 283 283 284 285 286 284
274 273 273 273 272 272 272 272 272 273 274 274 277 279 281 284 286 286 286 286 286 285 285 284 283 283 283 282 282 282 283 284 284 284 284 284 284 284
272 272 271 271 271 270 270 271 271 272 273 273 275 278 279 281 284 285 285 285 285 285 284 283 283 283 282 281 282 283 283 284 284 285 284 283 283 283

GFSNE_850_thetae_045.txt.gz
Theta_e
310 308 307 307 303 303 302 302 300 300 300 300 299 298 297 297 296 296 296 295 294 293 293 292 292 291 289 287 286 285 285 286 286 286 286 287 287 288
309 306 305 302 302 303 304 303 300 299 299 298 298 297 297 296 296 295 294 294 293 293 293 292 291 290 288 287 285 285 285 285 285 285 285 286 286 287
307 304 301 303 303 304 302 301 300 299 299 298 297 297 296 296 295 295 295 294 293 293 293 292 291 289 288 286 285 285 285 285 284 284 284 285 285 286
306 301 302 303 303 301 300 300 300 298 298 297 297 296 296 296 296 295 295 294 294 293 292 291 290 289 287 286 286 286 285 285 285 285 285 285 285 286
301 302 302 302 300 300 299 298 298 298 298 297 297 297 297 297 296 296 295 294 293 293 291 291 289 288 287 287 286 285 285 285 285 285 285 285 285 284
303 301 301 301 298 298 297 298 297 297 297 297 297 297 297 297 296 296 295 295 294 293 291 290 289 288 288 287 286 286 285 285 285 285 285 285 285 284
300 300 300 299 298 297 296 297 297 296 296 296 296 296 296 295 295 294 294 294 293 292 291 289 289 289 288 287 285 285 285 285 285 285 284 284 284 284
298 299 298 298 296 294 294 295 295 294 294 294 294 294 294 294 294 294 294 294 293 292 290 289 289 289 288 287 285 285 285 285 285 284 283 284 284 284
297 297 296 296 294 293 292 293 293 293 293 293 292 292 292 292 292 293 293 293 292 292 291 289 290 289 288 286 285 285 285 284 284 284 284 284 284 285
296 295 295 294 292 292 292 292 291 291 291 292 292 291 291 291 291 291 291 291 292 292 291 290 290 289 288 286 285 285 284 284 283 283 283 283 283 283
295 293 292 291 290 289 287 285 284 284 283 282 282 282 282 283 288 290 290 291 291 292 291 290 289 289 287 286 285 285 284 283 283 283 282 282 283 284
292 290 288 286 284 283 282 282 282 282 283 283 284 285 285 284 282 282 286 290 290 289 290 287 288 288 286 285 285 284 284 282 282 282 283 283 283 285
287 286 284 283 283 282 281 281 282 283 283 284 285 286 286 286 286 285 286 287 289 289 289 288 288 286 285 285 284 284 283 282 282 282 282 283 284 284
285 283 283 282 281 281 281 282 281 280 281 282 283 284 284 285 286 286 286 287 288 289 289 288 287 286 285 284 284 284 282 282 282 282 283 283 284 285
282 282 282 281 280 281 281 280 279 279 279 279 280 281 282 284 286 287 287 287 288 289 288 287 285 284 285 285 284 283 282 282 283 283 283 284 284 285
282 281 280 280 280 279 279 279 278 278 277 278 279 280 282 283 285 287 287 289 288 288 288 286 286 285 285 284 283 283 282 282 283 283 283 283 285 285
280 280 280 280 279 279 278 278 277 277 277 277 279 280 281 284 286 287 287 287 288 287 287 287 286 285 284 283 283 283 282 283 283 283 283 284 285 285
279 279 279 278 278 277 277 276 276 276 276 276 278 278 280 282 284 287 288 287 287 287 286 286 285 285 284 284 283 283 283 283 283 283 283 284 285 285
278 278 277 277 276 276 275 275 275 275 275 275 277 278 279 281 284 285 287 287 287 286 286 285 285 284 284 284 283 282 283 282 282 283 284 285 285 285
277 276 276 275 275 274 274 274 274 274 274 275 275 277 278 279 282 285 286 287 286 286 285 285 285 284 284 284 283 283 283 283 283 283 284 285 285 284
275 275 275 274 273 273 272 272 273 273 273 274 275 276 277 278 280 283 285 286 286 286 285 285 285 284 284 283 283 283 282 283 283 283 284 284 285 284
274 274 273 272 272 271 271 272 272 272 272 273 274 274 276 277 278 280 283 286 286 285 285 285 284 284 283 283 282 282 282 283 283 283 284 283 283 283
273 272 271 271 271 271 271 271 271 271 272 272 272 274 274 276 278 279 282 285 286 285 285 285 284 283 283 282 281 282 283 284 283 284 284 283 283 283

GFSNE_850_thetae_048.txt.gz
Theta_e
315 314 310 310 309 307 305 302 302 302 303 304 302 301 300 299 298 297 297 296 296 296 296 295 293 293 292 291 290 288 286 286 287 287 287 287 287 287
315 312 309 309 308 306 304 303 302 303 301 300 300 300 300 298 297 297 296 296 295 294 294 293 293 293 292 291 290 288 287 287 286 286 286 287 287 287
314 310 309 309 307 304 303 303 303 302 301 301 300 300 298 297 297 296 296 295 295 294 294 294 294 293 292 291 290 289 288 287 286 285 286 286 286 287
313 310 308 307 304 302 302 303 301 300 299 299 299 298 298 298 297 296 296 296 296 295 295 294 293 293 292 291 290 289 288 287 285 285 285 285 286 286
310 308 307 304 302 302 303 300 299 298 298 298 297 297 297 296 296 296 296 297 297 296 295 294 294 292 291 291 290 289 288 287 285 285 284 285 285 285
307 306 304 302 302 302 300 299 297 297 297 297 296 296 296 296 295 295 295 295 294 294 294 294 294 293 291 290 289 288 288 286 285 285 285 285 285 284
306 304 303 301 301 298 297 295 295 295 296 295 295 294 294 294 293 293 292 292 292 293 293 293 293 293 291 289 288 289 287 285 285 284 285 284 284 283
303 301 300 300 298 297 296 295 293 293 293 293 293 293 293 292 292 292 291 291 292 291 292 292 292 291 290 289 288 288 286 285 284 285 284 284 284 283
299 298 299 298 296 295 295 293 291 292 292 292 292 291 289 287 285 285 286 288 290 291 290 290 291 292 290 288 290 286 286 285 285 285 284 284 283 283
298 297 296 294 294 294 292 290 289 287 285 284 283 283 282 283 284 285 284 283 281 282 287 290 289 290 290 290 288 287 286 285 285 284 284 283 283 282
296 295 294 294 292 291 288 285 284 284 283 283 283 282 283 284 285 286 286 285 285 285 286 288 289 289 289 289 287 287 285 285 285 283 283 282 282 282
295 293 292 291 287 284 284 284 284 283 283 282 281 281 281 281 284 285 285 285 285 285 286 287 289 289 288 287 287 286 285 284 284 283 281 282 282 282
292 291 288 285 284 284 283 283 282 282 281 281 281 280 280 280 280 281 283 284 285 286 287 288 288 289 287 286 285 285 285 284 283 281 282 282 283 283
290 286 283 283 283 282 281 281 281 280 280 280 280 280 280 280 280 281 282 284 286 286 286 287 288 288 287 286 285 285 284 283 282 282 282 283 283 283
285 283 282 282 281 281 280 280 279 279 279 279 279 279 279 280 281 282 283 284 286 286 287 287 287 287 286 285 284 284 284 282 282 283 283 283 283 284
282 281 281 280 280 280 279 278 278 278 278 278 277 277 278 280 281 283 284 285 286 286 287 287 287 286 286 284 284 284 282 282 282 283 283 283 283 285
281 281 280 280 279 279 278 278 277 277 277 277 277 277 278 279 281 282 284 286 286 287 286 287 287 286 285 285 284 283 283 282 282 283 283 283 284 285
280 279 279 278 278 277 277 277 276 276 275 275 276 276 277 279 280 282 283 284 286 287 287 286 286 286 285 284 284 283 283 282 283 282 282 283 284 285
278 278 277 277 276 276 276 275 275 274 274 274 274 275 275 277 279 280 282 283 286 287 286 286 285 285 284 284 283 283 283 282 283 282 283 284 285 285
277 277 276 276 276 275 274 274 273 273 273 273 274 274 275 275 278 279 280 281 284 285 286 285 285 285 284 284 283 283 283 282 282 283 283 284 284 284
276 276 275 275 274 274 273 272 272 272 272 272 273 274 274 275 276 278 279 280 282 284 286 285 285 284 284 284 283 283 283 282 282 283 283 284 284 284
275 274 274 273 273 272 271 271 271 272 272 271 272 272 273 274 275 276 278 279 280 283 285 285 285 284 284 283 283 282 282 282 282 283 283 283 283 283
273 273 272 271 271 271 270 270 271 271 271 271 271 272 273 273 274 275 277 278 278 283 285 285 285 285 284 283 282 282 282 282 283 283 283 284 283 283